sat.trackr.live / text

‹ back to catalog

ONEWEB-0153

NORAD 48044 · 2021-025C

PAYLOAD ACTIVE UNKNOWN

§ Identity

Operator
Country
UK
Launch date
2021-03-25
Launch site
VOSTO
Launch vehicle
Mass (kg)
RCS (m²)

Purposes: comms

External: N2YO · Heavens-Above · Gunter

§ Orbital elements

Epoch: 2026-05-25T00:13:19.996608Z

Period
109.63 min
Inclination
87.8940°
Eccentricity
0.0001774
Mean motion
13.13469352 rev/d
Perigee alt
1,208.4 km
Apogee alt
1,211.1 km
Semi-major
7,587.9 km
B*
1.5548e-4
RAAN
324.8409°
Arg perigee
94.3661°
Mean anomaly
265.7671°
Rev number
25,050

§ Raw data

ONEWEB-01531 48044U 21025C   26145.00925922  .00000070  00000+0  15548-3 0  99992 48044  87.8940 324.8409 0001774  94.3661 265.7671 13.13469352250509

JSON: /api/v1/satellites/48044 · /tle

For live sub-satellite position, see the globe view (requires WebGL).

§ Visibility from observer

Set your observer location to see the next 7 days of passes ≥ 10°. The values pass through the URL so the page stays shareable.

No JS? Fill the form by hand. The geolocation button needs JavaScript.